Skip Page Navigation
NASA JPL Caltech
NASA Logo - Jet Propulsion Laboratory + View the NASA Portal
+ Center for Near-Earth Object Studies
JPL Home Earth Solar System Stars & Galaxies Technology
JPL Solar System Dynamics
BODIES ORBITS EPHEMERIDES TOOLS PHYSICAL DATA DISCOVERY FAQ SITE MAP
JPL Small-Body Database Browser
Search: [ help ]  
22086 (2000 AG170)
Classification: Main-belt Asteroid          SPK-ID: 2022086
Ephemeris | Orbit Diagram | Orbital Elements | Mission Design | Physical Parameters | Discovery Circumstances | Close-Approach Data ]

[ show orbit diagram ]
Orbital Elements at Epoch 2459200.5 (2020-Dec-17.0) TDB
Reference: JPL 30 (heliocentric ecliptic J2000)
 Element Value Uncertainty (1-sigma)   Units 
e .01179730557308412 4.2394e-08  
a 3.147413422244314 2.014e-08 au
q 3.110282424337271 1.2813e-07 au
i 13.73711617511865 3.9753e-06 deg
node 125.1179737499154 1.428e-05 deg
peri 63.30044879537405 0.00016478 deg
M 160.0059033696793 0.00016408 deg
tp 2458294.010827536315
(2018-Jun-24.51082754)
0.00092826 TDB
period 2039.525387591209
5.58
1.9576e-05
5.36e-08
d
yr
n .1765116542261725 1.6942e-09 deg/d
Q 3.184544420151357 2.0378e-08 au
  Orbit Determination Parameters
   # obs. used (total)      1738  
   data-arc span      15276 days (41.82 yr)  
   first obs. used      1979-03-22  
   last obs. used      2021-01-16  
   planetary ephem.      DE441  
   SB-pert. ephem.      SB441-N16  
   condition code      0  
   norm. resid. RMS      .49911  
   source      ORB  
   producer      Otto Matic  
   solution date      2021-Apr-13 03:59:25  

Additional Information
 Earth MOID = 2.13663 au 
 Jupiter MOID = 1.86815 au 
 T_jup = 3.164 
[ show covariance matrix ]

Ephemeris | Orbit Diagram | Orbital Elements | Mission Design | Physical Parameters | Discovery Circumstances | Close-Approach Data ]

Physical Parameter Table
Parameter Symbol Value Units Sigma Reference Notes
absolute magnitude H 13.11   n/a E2021B10  
diameter diameter 15.550 km 2.103 urn:nasa:pds:neowise_diameters_albedos::2.0[mainbelt] (http://adsabs.harvard.edu/abs/2012ApJ...759L...8M)  
geometric albedo albedo 0.051   0.030 urn:nasa:pds:neowise_diameters_albedos::2.0[mainbelt] (http://adsabs.harvard.edu/abs/2012ApJ...759L...8M)  

22086 (2000 AG170)          Discovered 2000-Jan-07 by LINEAR at Socorro
Reference: 20010208/Numbers.arcLast Updated: 2004-04-19

[ show close-approach data ]
Alternate Designations
 2000 AG170 = 1979 FE4 = 1986 NN 
Ephemeris | Orbit Diagram | Orbital Elements | Mission Design | Physical Parameters | Discovery Circumstances | Close-Approach Data ]
ABOUT SSD CREDITS/AWARDS PRIVACY/COPYRIGHT GLOSSARY LINKS
FirstGov 2021-Apr-18 06:49 UT
(server date/time)  
NASA Home Page
Site Manager:   Ryan S. Park
Webmaster  Alan B. Chamberlin